Location: DARK SKY Beskydy - Park tmavé oblohy, www.darkskybeskydy.cz
(49.4926°N, 18.5016°E)
Time: 04:27:10
(UTC+01:00)

Envisat - Pass Details

Date: 10 December 2022
Orbit: 763 x 765 km, 98.2° (Epoch: 05 February)

Event Time Altitude Azimuth Distance (km) Brightness Sun altitude
Rises 04:17:08 0° 13° (NNE) 3,245 6.4 -30.3°
Reaches altitude 10° 04:19:27 10° 12° (NNE) 2,314 5.6 -29.9°
Enters shadow 04:21:00 20° 11° (N) 1,711 4.8 -29.6°
